SDR28GR LEMH-EDHL

Flight info

Callsign SDR28GR
Flight time N/A
Altitude 36000
Route MORSS3C MORSS DCT OKSER DCT NOSTA DCT ABESI N851 LOKTA/N0448F370 DCT LOHRE/N0450F380 Z99 ELNAT P605 WERRA WERRA2R
Aircraft A319/M-SDE3FGHIRWY/LB1

Departure

Time N/A
Airport Menorca Airport (LEMH)

Arrival

Time 2026-04-29 11:59
Airport Lübeck Blankensee Airport (EDHL)
Time Latitude Longitude Altitude Speed Heading
2026-04-29 11:45 53.09454 10.48124 24706 ft 374 kts 11°
2026-04-29 11:45 53.11974 10.49018 24230 ft 368 kts 11°
2026-04-29 11:45 53.14455 10.49897 23706 ft 361 kts 11°
2026-04-29 11:45 53.16895 10.50758 23158 ft 356 kts 11°
2026-04-29 11:46 53.19301 10.51607 22609 ft 350 kts 11°
2026-04-29 11:46 53.21665 10.52438 22075 ft 345 kts 11°
2026-04-29 11:46 53.23995 10.53262 21548 ft 340 kts 11°
2026-04-29 11:46 53.26287 10.54077 21034 ft 335 kts 11°
2026-04-29 11:47 53.28550 10.54885 20390 ft 330 kts 13°
2026-04-29 11:47 53.30771 10.55677 19897 ft 324 kts 13°
2026-04-29 11:47 53.32954 10.56457 19421 ft 318 kts 13°
2026-04-29 11:47 53.35104 10.57229 18942 ft 313 kts 13°
2026-04-29 11:48 53.37220 10.57990 18426 ft 309 kts 13°
2026-04-29 11:48 53.39329 10.58758 17681 ft 311 kts 13°
2026-04-29 11:48 53.41429 10.59524 16900 ft 315 kts 13°
2026-04-29 11:48 53.43580 10.60299 16133 ft 318 kts 13°
2026-04-29 11:49 53.45748 10.61077 15382 ft 320 kts 13°
2026-04-29 11:49 53.47930 10.61855 14651 ft 321 kts 13°
2026-04-29 11:49 53.50114 10.62635 13881 ft 321 kts 13°
2026-04-29 11:49 53.52303 10.63415 13085 ft 321 kts 13°
2026-04-29 11:50 53.54483 10.64195 12303 ft 320 kts 13°
2026-04-29 11:50 53.56661 10.64979 11536 ft 319 kts 13°
2026-04-29 11:50 53.58832 10.65764 10789 ft 318 kts 13°
2026-04-29 11:50 53.61023 10.66134 10018 ft 320 kts 355°
2026-04-29 11:51 53.63097 10.64775 9208 ft 327 kts 327°
2026-04-29 11:51 53.64552 10.61821 8428 ft 336 kts 297°
2026-04-29 11:51 53.65154 10.58055 8012 ft 329 kts 281°
2026-04-29 11:51 53.65351 10.54292 7745 ft 316 kts 274°
2026-04-29 11:52 53.65402 10.50614 7204 ft 313 kts 272°
2026-04-29 11:52 53.65434 10.46960 6640 ft 310 kts 272°
2026-04-29 11:52 53.65469 10.43386 6063 ft 308 kts 272°
2026-04-29 11:52 53.65515 10.39776 5332 ft 309 kts 272°
2026-04-29 11:53 53.65595 10.36155 4730 ft 307 kts 277°
2026-04-29 11:53 53.66258 10.32871 4337 ft 291 kts 304°
2026-04-29 11:53 53.67643 10.30549 3951 ft 277 kts 332°
2026-04-29 11:53 53.69422 10.29635 3624 ft 260 kts
2026-04-29 11:54 53.71117 10.30219 3441 ft 242 kts 26°
2026-04-29 11:54 53.72420 10.31867 3244 ft 230 kts 50°
2026-04-29 11:54 53.73186 10.34169 3101 ft 223 kts 70°
2026-04-29 11:54 53.73661 10.36618 3045 ft 219 kts 71°
2026-04-29 11:55 53.74143 10.39055 3048 ft 219 kts 71°
2026-04-29 11:55 53.74620 10.41489 3037 ft 218 kts 71°
2026-04-29 11:55 53.75097 10.43923 3039 ft 216 kts 71°
2026-04-29 11:55 53.75557 10.46278 3006 ft 209 kts 70°
2026-04-29 11:56 53.76018 10.48639 2763 ft 212 kts 71°
2026-04-29 11:56 53.76480 10.50987 2551 ft 209 kts 70°
2026-04-29 11:56 53.76930 10.53290 2244 ft 205 kts 72°
2026-04-29 11:56 53.77337 10.55545 1944 ft 200 kts 71°
2026-04-29 11:57 53.77782 10.57755 1671 ft 194 kts 71°
2026-04-29 11:57 53.78154 10.59835 1578 ft 173 kts 73°
2026-04-29 11:57 53.78513 10.61707 1390 ft 161 kts 69°
2026-04-29 11:57 53.78888 10.63461 1158 ft 155 kts 69°
2026-04-29 11:58 53.79219 10.65171 879 ft 151 kts 71°
2026-04-29 11:58 53.79547 10.66848 621 ft 148 kts 68°
2026-04-29 11:58 53.79863 10.68495 367 ft 147 kts 68°
2026-04-29 11:58 53.80178 10.70103 133 ft 142 kts 69°
2026-04-29 11:59 53.80466 10.71581 56 ft 119 kts 71°
2026-04-29 11:59 53.80655 10.72559 58 ft 34 kts 75°
2026-04-29 11:59 53.80661 10.72698 61 ft 5 kts 70°
2026-04-29 11:59 53.80679 10.72737 58 ft 2 kts 324°
2026-04-29 12:00 53.80663 10.72637 53 ft 13 kts 250°
2026-04-29 12:00 53.80630 10.72457 58 ft 19 kts 254°
2026-04-29 12:00 53.80589 10.72221 56 ft 23 kts 252°
2026-04-29 12:00 53.80575 10.71961 57 ft 24 kts 292°
2026-04-29 12:01 53.80643 10.71691 59 ft 25 kts 291°
2026-04-29 12:01 53.80635 10.71431 61 ft 16 kts 252°
2026-04-29 12:01 53.80600 10.71238 56 ft 18 kts 251°
2026-04-29 12:01 53.80558 10.71023 59 ft 20 kts 252°
2026-04-29 12:02 53.80512 10.70786 59 ft 22 kts 252°
2026-04-29 12:02 53.80463 10.70528 60 ft 24 kts 252°
2026-04-29 12:02 53.80427 10.70318 61 ft 9 kts 290°
2026-04-29 12:02 53.80464 10.70288 61 ft 1 kts 344°
2026-04-29 12:03 53.80465 10.70288 61 ft 0 kts 343°
2026-04-29 12:06 53.80465 10.70287 61 ft 0 kts 343°